{"data":{"norad_id":60468,"epoch":"2026-09-22T19:53:37.958784Z","epoch_age_seconds":84935,"freshness":"FRESH","line1":"1 60468U 24149A   26265.82891156  .00006129  00000+0  18713-3 0  9995","line2":"2 60468  97.3670 345.5145 0002031 203.8021 156.3129 15.34273946117029","mean_motion":15.34273946,"eccentricity":0.0002031,"inclination_deg":97.367,"raan_deg":345.5145,"arg_perigee_deg":203.8021,"mean_anomaly_deg":156.3129,"bstar":0.00018713,"rev_number":11702,"period_min":93.855468494021,"perigee_km":461.68847415956,"apogee_km":464.46737566206,"semimajor_km":6841.2149249108,"source":"CELESTRAK","updated_at":"2026-09-23T09:00:20.650820Z"}}